PAA8PZ LROP-LRTR

Flight info

Callsign PAA8PZ
Flight time 0h 41m
Altitude 24000
Route SOKRU DCT OXDOC DCT NEKUL
Aircraft L101/H-SDFGHIRWXY/S

Departure

Time 2026-04-24 19:39
Airport Bucharest Henri Coandă International Airport (LROP)

Arrival

Time 2026-04-24 20:21
Airport Timișoara Traian Vuia International Airport (LRTR)
Time Latitude Longitude Altitude Speed Heading
2026-04-24 19:07 44.57133 26.08244 318 ft 0 kts 219°
2026-04-24 19:31 44.57146 26.08259 319 ft 4 kts 219°
2026-04-24 19:31 44.57167 26.08282 319 ft 4 kts 220°
2026-04-24 19:31 44.57185 26.08304 321 ft 4 kts 230°
2026-04-24 19:32 44.57195 26.08333 319 ft 4 kts 283°
2026-04-24 19:32 44.57182 26.08359 319 ft 4 kts 336°
2026-04-24 19:32 44.57156 26.08368 320 ft 4 kts 354°
2026-04-24 19:32 44.57131 26.08371 318 ft 2 kts 354°
2026-04-24 19:33 44.57129 26.08371 318 ft 0 kts 354°
2026-04-24 19:35 44.57130 26.08371 318 ft 1 kts 354°
2026-04-24 19:35 44.57150 26.08369 319 ft 5 kts 354°
2026-04-24 19:36 44.57195 26.08366 318 ft 8 kts
2026-04-24 19:36 44.57230 26.08421 319 ft 8 kts 81°
2026-04-24 19:36 44.57246 26.08483 320 ft 6 kts 39°
2026-04-24 19:36 44.57292 26.08492 321 ft 7 kts 356°
2026-04-24 19:37 44.57353 26.08485 324 ft 10 kts 354°
2026-04-24 19:37 44.57416 26.08476 324 ft 10 kts 354°
2026-04-24 19:37 44.57484 26.08466 326 ft 8 kts 354°
2026-04-24 19:37 44.57537 26.08458 327 ft 8 kts 354°
2026-04-24 19:38 44.57587 26.08450 330 ft 7 kts 354°
2026-04-24 19:38 44.57629 26.08444 332 ft 4 kts 354°
2026-04-24 19:38 44.57655 26.08449 330 ft 1 kts 43°
2026-04-24 19:38 44.57669 26.08473 330 ft 5 kts 50°
2026-04-24 19:39 44.57675 26.08505 332 ft 5 kts 86°
2026-04-24 19:39 44.57695 26.08819 324 ft 80 kts 85°
2026-04-24 19:39 44.57792 26.10059 400 ft 166 kts 84°
2026-04-24 19:39 44.57923 26.11770 1364 ft 183 kts 80°
2026-04-24 19:40 44.58106 26.13639 2472 ft 210 kts 79°
2026-04-24 19:40 44.58243 26.15764 3435 ft 224 kts 84°
2026-04-24 19:40 44.58358 26.18099 4250 ft 252 kts 85°
2026-04-24 19:40 44.58491 26.20749 4539 ft 294 kts 85°
2026-04-24 19:41 44.58646 26.23751 5075 ft 318 kts 85°
2026-04-24 19:41 44.59022 26.26796 6241 ft 314 kts 70°
2026-04-24 19:41 44.60044 26.29366 7924 ft 291 kts 47°
2026-04-24 19:41 44.61532 26.31097 9628 ft 271 kts 24°
2026-04-24 19:42 44.63307 26.31948 10725 ft 273 kts
2026-04-24 19:42 44.65271 26.32278 11183 ft 301 kts
2026-04-24 19:42 44.67491 26.32378 11259 ft 336 kts 358°
2026-04-24 19:42 44.69926 26.32356 11385 ft 363 kts 357°
2026-04-24 19:43 44.72520 26.32272 11818 ft 378 kts 356°
2026-04-24 19:43 44.75139 26.32159 12959 ft 371 kts 356°
2026-04-24 19:43 44.77686 26.32036 14242 ft 364 kts 356°
2026-04-24 19:43 44.80252 26.31899 14870 ft 375 kts 356°
2026-04-24 19:44 44.82886 26.31738 15200 ft 390 kts 356°
2026-04-24 19:44 44.85598 26.31557 16102 ft 388 kts 356°
2026-04-24 19:44 44.88257 26.31368 17436 ft 378 kts 356°
2026-04-24 19:44 44.90898 26.31172 18315 ft 383 kts 356°
2026-04-24 19:45 44.93597 26.30837 18655 ft 396 kts 348°
2026-04-24 19:45 44.96172 26.29398 19279 ft 404 kts 329°
2026-04-24 19:45 44.98245 26.26725 20306 ft 405 kts 310°
2026-04-24 19:45 44.99604 26.23189 21114 ft 419 kts 293°
2026-04-24 19:46 45.00342 26.19128 21668 ft 433 kts 285°
2026-04-24 19:46 45.00897 26.14928 22556 ft 435 kts 285°
2026-04-24 19:46 45.01577 26.10740 23291 ft 439 kts 288°
2026-04-24 19:46 45.02346 26.06618 23819 ft 420 kts 289°
2026-04-24 19:47 45.03064 26.02726 23872 ft 402 kts 289°
2026-04-24 19:47 45.03746 25.98920 23905 ft 396 kts 289°
2026-04-24 19:47 45.04408 25.95214 23936 ft 394 kts 289°
2026-04-24 19:47 45.05082 25.91454 23944 ft 393 kts 289°
2026-04-24 19:48 45.05755 25.87705 23953 ft 393 kts 289°
2026-04-24 19:48 45.06426 25.83960 23953 ft 393 kts 289°
2026-04-24 19:48 45.07766 25.76450 23960 ft 393 kts 289°
2026-04-24 19:49 45.09104 25.68916 23963 ft 400 kts 289°
2026-04-24 19:49 45.10556 25.60846 23973 ft 441 kts 288°
2026-04-24 19:50 45.12794 25.48102 23976 ft 446 kts 288°
2026-04-24 19:50 45.13539 25.43839 23977 ft 446 kts 288°
2026-04-24 19:51 45.15027 25.35291 23977 ft 448 kts 288°
2026-04-24 19:51 45.15773 25.30990 23983 ft 448 kts 288°
2026-04-24 19:52 45.17256 25.22407 23987 ft 448 kts 288°
2026-04-24 19:52 45.17996 25.18115 23984 ft 448 kts 288°
2026-04-24 19:52 45.18728 25.13857 23989 ft 452 kts 288°
2026-04-24 19:52 45.19483 25.09460 23992 ft 454 kts 288°
2026-04-24 19:53 45.20207 25.05206 23994 ft 438 kts 288°
2026-04-24 19:53 45.20943 25.00866 24005 ft 460 kts 288°
2026-04-24 19:53 45.22485 24.91885 23998 ft 477 kts 288°
2026-04-24 19:54 45.23261 24.87295 23998 ft 478 kts 288°
2026-04-24 19:54 45.24031 24.82713 24003 ft 479 kts 288°
2026-04-24 19:54 45.24806 24.78098 23994 ft 480 kts 287°
2026-04-24 19:54 45.25581 24.73477 23999 ft 481 kts 287°
2026-04-24 19:55 45.25841 24.71925 23996 ft 481 kts 287°
2026-04-24 19:55 45.27122 24.64239 23997 ft 481 kts 287°
2026-04-24 19:55 45.27890 24.59613 23999 ft 480 kts 287°
2026-04-24 19:55 45.28652 24.55007 24003 ft 479 kts 287°
2026-04-24 19:56 45.29410 24.50400 24005 ft 479 kts 287°
2026-04-24 19:56 45.30168 24.45793 24005 ft 479 kts 287°
2026-04-24 19:56 45.30925 24.41184 24007 ft 479 kts 287°
2026-04-24 19:56 45.31682 24.36567 24005 ft 479 kts 287°
2026-04-24 19:57 45.32440 24.31938 24011 ft 480 kts 287°
2026-04-24 19:57 45.33188 24.27332 23998 ft 480 kts 287°
2026-04-24 19:57 45.33684 24.24266 24006 ft 479 kts 287°
2026-04-24 19:57 45.34432 24.19649 24012 ft 479 kts 287°
2026-04-24 19:58 45.35423 24.13536 24009 ft 479 kts 287°
2026-04-24 19:58 45.36175 24.08904 24010 ft 479 kts 287°
2026-04-24 19:58 45.36914 24.04292 24022 ft 479 kts 287°
2026-04-24 19:58 45.37405 24.01216 24022 ft 479 kts 287°
2026-04-24 19:59 45.38144 23.96579 24021 ft 479 kts 286°
2026-04-24 19:59 45.38881 23.91967 24025 ft 479 kts 286°
2026-04-24 19:59 45.39620 23.87335 24033 ft 479 kts 286°
2026-04-24 19:59 45.40349 23.82707 24034 ft 480 kts 286°
2026-04-24 20:00 45.41077 23.78080 24034 ft 479 kts 286°
2026-04-24 20:00 45.41807 23.73444 24035 ft 479 kts 286°
2026-04-24 20:00 45.42533 23.68819 24036 ft 479 kts 286°
2026-04-24 20:00 45.43260 23.64169 24036 ft 479 kts 286°
2026-04-24 20:01 45.43973 23.59595 24044 ft 479 kts 286°
2026-04-24 20:01 45.44695 23.54948 24039 ft 479 kts 286°
2026-04-24 20:01 45.45411 23.50312 24040 ft 479 kts 286°
2026-04-24 20:01 45.46127 23.45675 24046 ft 480 kts 286°
2026-04-24 20:02 45.46839 23.41043 24048 ft 480 kts 286°
2026-04-24 20:02 45.47553 23.36379 24046 ft 479 kts 286°
2026-04-24 20:02 45.48260 23.31744 24049 ft 479 kts 286°
2026-04-24 20:02 45.48966 23.27097 24050 ft 479 kts 285°
2026-04-24 20:03 45.49672 23.22459 24050 ft 479 kts 285°
2026-04-24 20:03 45.50376 23.17812 24049 ft 479 kts 285°
2026-04-24 20:03 45.51173 23.13205 24050 ft 478 kts 288°
2026-04-24 20:03 45.51904 23.08600 24038 ft 465 kts 284°
2026-04-24 20:04 45.52473 23.04121 23544 ft 452 kts 283°
2026-04-24 20:04 45.52954 22.99748 22823 ft 443 kts 282°
2026-04-24 20:04 45.53382 22.95492 22128 ft 437 kts 281°
2026-04-24 20:04 45.53794 22.91216 21481 ft 433 kts 281°
2026-04-24 20:05 45.54199 22.86925 20834 ft 429 kts 281°
2026-04-24 20:05 45.54587 22.82779 20221 ft 425 kts 281°
2026-04-24 20:05 45.54976 22.78624 19608 ft 421 kts 281°
2026-04-24 20:05 45.55365 22.74500 19010 ft 418 kts 281°
2026-04-24 20:06 45.55757 22.70400 18425 ft 415 kts 281°
2026-04-24 20:06 45.56151 22.66335 17765 ft 411 kts 281°
2026-04-24 20:06 45.56547 22.62311 17118 ft 408 kts 281°
2026-04-24 20:06 45.56942 22.58334 16488 ft 404 kts 281°
2026-04-24 20:07 45.57206 22.55730 16071 ft 402 kts 281°
2026-04-24 20:07 45.57747 22.50464 15240 ft 398 kts 281°
2026-04-24 20:07 45.58147 22.46627 14671 ft 378 kts 281°
2026-04-24 20:07 45.58532 22.42967 14212 ft 370 kts 281°
2026-04-24 20:08 45.58918 22.39343 13719 ft 367 kts 281°
2026-04-24 20:08 45.59345 22.35827 13169 ft 363 kts 283°
2026-04-24 20:08 45.59850 22.32313 12586 ft 359 kts 284°
2026-04-24 20:08 45.60443 22.28874 11941 ft 355 kts 287°
2026-04-24 20:09 45.61107 22.25502 11320 ft 351 kts 288°
2026-04-24 20:09 45.61800 22.22178 10698 ft 347 kts 288°
2026-04-24 20:09 45.62503 22.18892 10098 ft 344 kts 289°
2026-04-24 20:09 45.63208 22.15640 9460 ft 340 kts 289°
2026-04-24 20:10 45.63910 22.12429 8799 ft 336 kts 289°
2026-04-24 20:10 45.64592 22.09327 8138 ft 324 kts 289°
2026-04-24 20:10 45.65258 22.06317 7518 ft 310 kts 289°
2026-04-24 20:10 45.65889 22.03483 6839 ft 287 kts 289°
2026-04-24 20:11 45.66495 22.00790 6278 ft 281 kts 288°
2026-04-24 20:11 45.67054 21.98146 5642 ft 275 kts 287°
2026-04-24 20:11 45.67568 21.95532 5000 ft 271 kts 286°
2026-04-24 20:11 45.68062 21.92952 4363 ft 268 kts 286°
2026-04-24 20:12 45.68550 21.90390 3748 ft 265 kts 285°
2026-04-24 20:12 45.69031 21.87889 3346 ft 255 kts 285°
2026-04-24 20:12 45.69492 21.85520 3162 ft 239 kts 285°
2026-04-24 20:12 45.69925 21.83312 3067 ft 222 kts 286°
2026-04-24 20:13 45.70326 21.81287 3019 ft 206 kts 286°
2026-04-24 20:13 45.70713 21.79334 3096 ft 204 kts 286°
2026-04-24 20:13 45.71101 21.77373 3056 ft 204 kts 286°
2026-04-24 20:13 45.71488 21.75422 3017 ft 204 kts 286°
2026-04-24 20:14 45.71875 21.73469 3004 ft 204 kts 286°
2026-04-24 20:14 45.72182 21.71525 2955 ft 192 kts 271°
2026-04-24 20:14 45.72129 21.69721 2966 ft 178 kts 275°
2026-04-24 20:14 45.72400 21.68039 3167 ft 173 kts 288°
2026-04-24 20:15 45.72800 21.66436 3128 ft 165 kts 291°
2026-04-24 20:15 45.73181 21.64924 3116 ft 157 kts 291°
2026-04-24 20:15 45.73550 21.63475 3042 ft 155 kts 291°
2026-04-24 20:15 45.73906 21.62064 3007 ft 147 kts 291°
2026-04-24 20:16 45.74250 21.60693 3003 ft 147 kts 291°
2026-04-24 20:16 45.74602 21.59295 3006 ft 150 kts 291°
2026-04-24 20:16 45.74955 21.57885 3013 ft 151 kts 291°
2026-04-24 20:16 45.75314 21.56458 3115 ft 155 kts 291°
2026-04-24 20:17 45.75677 21.55005 3035 ft 156 kts 291°
2026-04-24 20:17 45.76406 21.52089 2706 ft 155 kts 291°
2026-04-24 20:17 45.76768 21.50639 2507 ft 154 kts 291°
2026-04-24 20:18 45.77013 21.49662 2376 ft 154 kts 291°
2026-04-24 20:18 45.77492 21.47747 2104 ft 154 kts 290°
2026-04-24 20:18 45.77852 21.46304 1895 ft 154 kts 290°
2026-04-24 20:18 45.78213 21.44861 1694 ft 154 kts 290°
2026-04-24 20:19 45.78573 21.43423 1473 ft 154 kts 290°
2026-04-24 20:19 45.78930 21.41972 1222 ft 151 kts 289°
2026-04-24 20:19 45.79276 21.40536 946 ft 153 kts 290°
2026-04-24 20:19 45.79651 21.39079 769 ft 159 kts 291°
2026-04-24 20:20 45.80033 21.37546 602 ft 162 kts 290°
2026-04-24 20:20 45.80413 21.36035 404 ft 154 kts 291°
2026-04-24 20:20 45.80744 21.34748 357 ft 116 kts 288°
2026-04-24 20:20 45.80976 21.33838 356 ft 81 kts 289°
2026-04-24 20:21 45.81140 21.33171 349 ft 66 kts 291°
2026-04-24 20:21 45.81284 21.32580 352 ft 60 kts 288°
2026-04-24 20:21 45.81382 21.32203 352 ft 20 kts 289°
2026-04-24 20:21 45.81379 21.32174 351 ft 3 kts 227°
2026-04-24 20:22 45.81339 21.32139 354 ft 10 kts 205°
2026-04-24 20:22 45.81261 21.32097 352 ft 14 kts 200°
2026-04-24 20:22 45.81183 21.32058 354 ft 12 kts 197°
2026-04-24 20:22 45.81125 21.32032 354 ft 7 kts 199°
2026-04-24 20:23 45.81096 21.32018 352 ft 0 kts 198°